PERPET Weather Reports


Display with metric or nautical units.
time (UTC)temp
F
wind
direction
speed
MPH
gust
MPH
rain 1hr
in
rain 24hr
in
rain mn
in
humidity
%
barometer
mb
20240620215444 54 329 5.0 10.0 0.00 0.20 0.20
20240620214444 53 292 6.0 10.0 0.00 0.20 0.20
20240620213443 54 320 4.0 12.0 0.00 0.20 0.20
20240620212943 54 330 5.0 12.0 0.00 0.20 0.20
20240620212443 55 226 5.0 9.0 0.00 0.20 0.20
20240620211943 55 337 3.0 7.0 0.00 0.20 0.20
20240620210943 55 294 1.0 9.0 0.00 0.20 0.20
20240620210444 55 312 4.0 9.0 0.00 0.20 0.20
20240620205443 54 327 4.0 9.0 0.00 0.20 0.20
20240620203943 54 270 3.0 9.0 0.00 0.20 0.20
20240620203443 54 316 5.0 10.0 0.00 0.20 0.20
20240620202943 54 323 5.0 10.0 0.00 0.20 0.20
20240620202443 54 323 5.0 10.0 0.00 0.20 0.20
20240620201943 54 21 6.0 10.0 0.00 0.20 0.20
20240620201444 54 319 6.0 10.0 0.00 0.20 0.20
20240620200943 53 294 4.0 10.0 0.00 0.20 0.20
20240620195444 54 281 5.0 9.0 0.00 0.20 0.20
20240620194943 54 9 5.0 9.0 0.00 0.20 0.20
20240620194444 54 284 4.0 10.0 0.00 0.20 0.20
20240620193943 54 341 4.0 10.0 0.00 0.20 0.20
20240620193443 54 312 4.0 10.0 0.00 0.20 0.20
20240620192943 54 302 5.0 8.0 0.00 0.20 0.20
20240620192443 54 303 3.0 8.0 0.00 0.20 0.20
20240620191943 54 266 4.0 8.0 0.00 0.20 0.20
20240620191444 54 256 4.0 9.0 0.00 0.20 0.20
20240620190943 54 337 2.0 9.0 0.00 0.20 0.20
20240620190443 53 261 3.0 9.0 0.00 0.20 0.20
20240620185944 53 4 0.0 9.0 0.00 0.20 0.20
20240620185443 53 16 2.0 10.0 0.00 0.20 0.20
20240620184943 53 281 2.0 10.0 0.00 0.20 0.20
20240620184444 53 19 1.0 10.0 0.00 0.20 0.20
20240620183943 52 308 4.0 12.0 0.00 0.20 0.20
20240620183443 52 280 2.0 12.0 0.00 0.20 0.20
20240620182943 52 257 5.0 12.0 0.00 0.20 0.20
20240620182443 52 338 4.0 9.0 0.00 0.20 0.20
20240620181943 53 340 4.0 9.0 0.00 0.20 0.20
20240620181443 52 26 4.0 9.0 0.00 0.20 0.20
20240620180943 52 22 0.0 9.0 0.00 0.20 0.20
20240620175443 52 246 3.0 10.0 0.00 0.20 0.20
20240620174943 52 287 3.0 6.0 0.00 0.20 0.20
20240620173943 52 264 4.0 10.0 0.00 0.20 0.20
20240620173443 52 277 2.0 10.0 0.00 0.20 0.20
20240620172443 52 284 1.0 7.0 0.00 0.20 0.20
20240620171943 52 306 0.0 7.0 0.00 0.20 0.20
20240620171443 52 343 0.0 7.0 0.00 0.20 0.20
20240620170943 52 186 1.0 5.0 0.00 0.20 0.20
20240620170444 52 42 0.0 5.0 0.00 0.20 0.20
20240620165943 53 32 0.0 3.0 0.00 0.20 0.20
20240620165444 52 357 0.0 3.0 0.00 0.20 0.20
20240620164942 52 357 0.0 5.0 0.00 0.20 0.20
20240620163942 52 316 0.0 5.0 0.00 0.20 0.20
20240620163442 52 267 0.0 5.0 0.00 0.20 0.20
20240620162942 52 19 0.0 5.0 0.00 0.20 0.20
20240620162442 52 47 1.0 9.0 0.00 0.20 0.20
20240620161443 51 2 0.0 9.0 0.00 0.20 0.20
20240620160942 51 357 1.0 10.0 0.00 0.20 0.20
20240620155942 51 11 3.0 10.0 0.00 0.20 0.20
20240620154942 51 39 2.0 9.0 0.01 0.20 0.20
20240620153942 51 7 1.0 9.0 0.01 0.20 0.20
20240620152942 50 15 1.0 9.0 0.01 0.20 0.20
20240620152442 50 261 0.0 5.0 0.01 0.20 0.20
20240620151942 50 284 1.0 11.0 0.01 0.20 0.20
20240620151443 50 239 3.0 11.0 0.01 0.20 0.20
20240620150942 50 261 1.0 11.0 0.02 0.20 0.20
20240620150442 50 281 1.0 9.0 0.02 0.20 0.20
20240620145942 50 357 0.0 9.0 0.02 0.20 0.20
20240620145443 50 275 0.0 9.0 0.02 0.20 0.20
20240620144942 49 357 3.0 7.0 0.01 0.19 0.19
20240620144443 49 357 0.0 7.0 0.01 0.19 0.19
20240620143942 49 357 0.0 6.0 0.01 0.19 0.19
20240620143442 49 357 0.0 6.0 0.01 0.19 0.19
20240620142942 49 357 0.0 10.0 0.02 0.19 0.19
20240620142443 49 277 0.0 10.0 0.02 0.19 0.19
20240620141942 49 250 2.0 10.0 0.02 0.19 0.19
20240620141443 49 308 3.0 10.0 0.02 0.19 0.19
20240620140942 49 285 2.0 11.0 0.01 0.19 0.19
20240620140442 49 23 2.0 11.0 0.01 0.18 0.18
20240620135942 49 264 0.0 11.0 0.02 0.18 0.18
20240620135443 49 8 0.0 11.0 0.02 0.18 0.18
20240620134942 49 264 1.0 11.0 0.03 0.18 0.18
20240620133942 48 271 3.0 11.0 0.03 0.18 0.18
20240620133442 48 347 2.0 8.0 0.03 0.18 0.18
20240620132942 48 16 0.0 8.0 0.03 0.17 0.17
20240620132442 48 231 0.0 8.0 0.03 0.17 0.17
20240620131942 48 208 0.0 14.0 0.03 0.17 0.17
20240620130942 48 190 4.0 14.0 0.04 0.17 0.17
20240620130442 48 292 5.0 11.0 0.04 0.17 0.17
20240620125942 48 166 3.0 11.0 0.03 0.17 0.17
20240620125442 48 341 1.0 11.0 0.03 0.16 0.16
20240620124942 48 232 6.0 11.0 0.02 0.16 0.16
20240620124442 48 294 6.0 9.0 0.02 0.15 0.16
20240620123942 49 238 1.0 8.0 0.02 0.15 0.15
20240620123442 48 284 2.0 9.0 0.02 0.15 0.15
20240620122942 49 350 4.0 9.0 0.01 0.15 0.15
20240620122442 48 9 1.0 9.0 0.01 0.14 0.14
20240620121942 49 89 1.0 9.0 0.01 0.14 0.14
20240620121442 48 281 3.0 9.0 0.01 0.14 0.14
20240620120942 49 317 3.0 7.0 0.00 0.14 0.14
20240620115941 49 334 0.0 6.0 0.01 0.13 0.13
20240620115442 49 315 0.0 5.0 0.01 0.13 0.13
20240620114941 49 0 0.0 5.0 0.01 0.13 0.13
20240620114442 49 1 0.0 5.0 0.01 0.13 0.13
20240620113941 49 1 0.0 5.0 0.01 0.13 0.13
20240620113441 49 0 0.0 5.0 0.01 0.13 0.13
20240620112942 49 273 0.0 5.0 0.02 0.13 0.13
20240620112441 49 0 0.0 0.0 0.02 0.13 0.13
20240620111942 49 0 0.0 0.0 0.02 0.13 0.13
20240620111442 49 0 0.0 8.0 0.02 0.13 0.13
20240620110942 49 0 0.0 8.0 0.03 0.13 0.13
20240620105941 49 319 0.0 8.0 0.02 0.13 0.13
20240620105441 48 340 0.0 8.0 0.02 0.12 0.12
20240620104941 48 327 0.0 8.0 0.02 0.12 0.12
20240620104442 48 291 2.0 8.0 0.02 0.12 0.12
20240620103941 48 302 1.0 11.0 0.02 0.12 0.12
20240620103442 48 278 2.0 11.0 0.02 0.12 0.12
20240620102941 48 277 5.0 11.0 0.01 0.12 0.12
20240620102441 48 305 7.0 10.0 0.01 0.11 0.11
20240620101941 49 338 4.0 10.0 0.02 0.11 0.11
20240620101442 49 326 3.0 10.0 0.02 0.11 0.11
20240620100941 48 303 1.0 8.0 0.01 0.11 0.11
20240620100441 49 319 1.0 7.0 0.01 0.10 0.10
20240620095941 49 357 0.0 7.0 0.01 0.10 0.10
20240620095442 50 348 0.0 6.0 0.01 0.10 0.10
20240620094942 50 0 0.0 6.0 0.02 0.10 0.10
20240620094442 50 337 0.0 6.0 0.02 0.10 0.10
20240620093943 50 299 0.0 4.0 0.02 0.10 0.10
20240620093441 50 21 0.0 4.0 0.02 0.10 0.10
20240620092941 50 7 0.0 3.0 0.02 0.10 0.10
20240620092441 50 0 0.0 5.0 0.02 0.10 0.10
20240620091941 49 7 0.0 5.0 0.01 0.10 0.10
20240620091442 49 7 0.0 5.0 0.01 0.09 0.09
20240620090941 49 357 0.0 5.0 0.02 0.09 0.09
20240620090441 49 292 0.0 5.0 0.02 0.09 0.09
20240620085941 49 316 1.0 10.0 0.02 0.09 0.09
20240620085441 49 302 1.0 10.0 0.02 0.09 0.09
20240620084941 49 327 1.0 10.0 0.01 0.09 0.09
20240620084441 49 5 4.0 10.0 0.01 0.08 0.08
20240620083941 50 305 2.0 10.0 0.01 0.08 0.08
20240620082941 50 338 0.0 9.0 0.02 0.08 0.08
20240620082441 50 330 2.0 6.0 0.02 0.08 0.08
20240620081441 50 320 0.0 11.0 0.02 0.08 0.08
20240620080941 50 323 3.0 11.0 0.01 0.08 0.08
20240620080441 49 212 4.0 11.0 0.01 0.07 0.07
20240620075441 49 222 5.0 10.0 0.02 0.07 0.07
20240620074941 49 242 5.0 14.0 0.02 0.07 0.07
20240620074442 49 242 3.0 14.0 0.02 0.07 0.07
20240620073941 50 235 6.0 14.0 0.02 0.07 0.07
20240620073441 49 236 6.0 10.0 0.02 0.07 0.07
20240620072941 49 274 1.0 10.0 0.02 0.06 0.06
20240620072441 50 197 3.0 9.0 0.02 0.06 0.06
20240620071941 50 175 5.0 11.0 0.02 0.06 0.06
20240620070940 50 266 4.0 11.0 0.02 0.06 0.06
20240620070441 50 317 4.0 11.0 0.02 0.06 0.06
20240620065441 50 357 5.0 11.0 0.02 0.05 0.05
20240620064941 50 357 4.0 11.0 0.02 0.05 0.05
20240620064441 50 291 4.0 10.0 0.02 0.05 0.05
20240620063940 50 288 5.0 13.0 0.02 0.05 0.05
20240620063441 50 316 6.0 13.0 0.02 0.05 0.05
20240620062940 50 302 5.0 13.0 0.02 0.05 0.05
20240620062440 50 277 7.0 11.0 0.02 0.04 0.04
20240620061940 50 295 6.0 10.0 0.02 0.04 0.04
20240620061441 50 326 5.0 13.0 0.02 0.04 0.04
20240620060940 50 320 6.0 13.0 0.03 0.04 0.04
20240620060440 50 309 5.0 13.0 0.03 0.04 0.04
20240620055940 50 327 2.0 11.0 0.02 0.04 0.04
20240620055440 50 310 6.0 9.0 0.02 0.03 0.03
20240620054940 50 320 5.0 11.0 0.02 0.03 0.03
20240620054441 50 270 6.0 11.0 0.02 0.03 0.03
20240620053940 50 319 7.0 11.0 0.02 0.03 0.03
20240620053440 50 333 5.0 11.0 0.02 0.03 0.03
20240620052940 50 312 7.0 11.0 0.02 0.03 0.03
20240620051940 50 326 5.0 12.0 0.02 0.02 0.02
20240620051441 51 259 3.0 12.0 0.02 0.02 0.02
20240620050940 51 306 4.0 11.0 0.01 0.02 0.02
20240620050440 50 329 3.0 11.0 0.01 0.02 0.02
20240620045940 51 338 5.0 9.0 0.01 0.01 0.01
20240620045440 51 333 4.0 9.0 0.01 0.01 0.01
20240620044940 51 319 6.0 10.0 0.01 0.01 0.01
20240620044441 51 333 4.0 10.0 0.01 0.01 0.01
20240620043943 51 5 5.0 10.0 0.01 0.01 0.01
20240620043440 51 336 6.0 11.0 0.01 0.01 0.01
20240620042940 50 357 6.0 11.0 0.00 0.01 0.01
20240620042440 51 305 6.0 11.0 0.00 0.00 0.00
20240620041441 51 316 5.0 9.0 0.00 0.00 0.00
20240620040940 51 306 5.0 9.0 0.00 0.00 0.00
20240620040440 51 282 4.0 8.0 0.00 0.00 0.00
20240620035940 51 315 5.0 8.0 0.00 0.00 0.00
20240620035440 51 317 3.0 8.0 0.00 0.00 0.00
20240620034940 51 295 5.0 9.0 0.00 0.00 0.00
20240620034441 51 317 5.0 9.0 0.00 0.00 0.00
20240620033940 51 331 5.0 9.0 0.00 0.00 0.00
20240620033440 52 315 2.0 9.0 0.00 0.00 0.00
20240620032940 51 341 5.0 9.0 0.00 0.00 0.00
20240620032440 52 327 5.0 8.0 0.00 0.00 0.00
20240620031440 52 315 6.0 10.0 0.00 0.00 0.00
20240620030940 52 315 4.0 10.0 0.00 0.00 0.00
20240620030441 52 333 5.0 9.0 0.00 0.00 0.00
20240620025940 52 301 2.0 11.0 0.00 0.00 0.00
20240620025440 52 345 5.0 11.0 0.00 0.00 0.00
20240620024442 53 329 4.0 10.0 0.00 0.00 0.00
20240620023940 53 302 4.0 10.0 0.00 0.00 0.00
20240620023440 53 345 6.0 10.0 0.00 0.00 0.00
20240620022940 52 323 5.0 12.0 0.00 0.00 0.00
20240620022440 52 305 6.0 12.0 0.00 0.00 0.00
20240620021940 53 312 6.0 12.0 0.00 0.00 0.00
20240620021440 53 334 5.0 10.0 0.00 0.00 0.00
20240620020940 53 250 6.0 11.0 0.00 0.00 0.00
20240620020440 53 190 5.0 11.0 0.00 0.00 0.00
20240620015940 53 312 5.0 11.0 0.00 0.00 0.00
20240620015440 53 337 6.0 11.0 0.00 0.00 0.00
20240620014940 54 252 3.0 11.0 0.00 0.00 0.00
20240620014440 54 207 4.0 11.0 0.00 0.00 0.00
20240620013940 53 263 5.0 11.0 0.00 0.00 0.00
20240620013440 54 336 5.0 11.0 0.00 0.00 0.00
20240620012940 54 310 6.0 11.0 0.00 0.00 0.00
20240620012439 54 308 5.0 11.0 0.00 0.00 0.00
20240620011441 54 306 5.0 9.0 0.00 0.00 0.00
20240620010939 54 298 4.0 12.0 0.00 0.00 0.00
20240620010439 54 313 5.0 12.0 0.00 0.00 0.00
20240620005942 54 316 4.0 12.0 0.00 0.00 0.00
20240620005440 54 316 5.0 10.0 0.00 0.00 0.00
20240620004939 54 306 1.0 10.0 0.00 0.00 0.00
20240620004440 55 317 4.0 10.0 0.00 0.00 0.00
20240620003941 54 316 4.0 10.0 0.00 0.00 0.00
20240620003439 54 264 4.0 10.0 0.00 0.00 0.00
20240620002939 55 317 5.0 12.0 0.00 0.00 0.00
20240620002439 55 273 4.0 12.0 0.00 0.00 0.00
20240620001939 55 320 5.0 12.0 0.00 0.00 0.00
20240620000939 55 341 3.0 9.0 0.00 0.00 0.00
20240620000440 55 295 5.0 11.0 0.00 0.00 0.00
20240619235939 56 292 3.0 11.0 0.00 0.00 0.00
20240619235439 56 333 3.0 11.0 0.00 0.00 0.00
20240619234440 56 323 4.0 10.0 0.00 0.00 0.00
20240619233939 56 319 4.0 10.0 0.00 0.00 0.00
20240619233439 56 316 3.0 14.0 0.00 0.00 0.00
20240619232939 56 285 3.0 14.0 0.00 0.00 0.00
20240619232439 56 273 5.0 14.0 0.00 0.00 0.00
20240619231939 57 285 2.0 12.0 0.00 0.00 0.00
20240619231440 57 327 3.0 12.0 0.00 0.00 0.00
20240619230939 57 299 4.0 10.0 0.00 0.00 0.00
20240619230439 56 316 4.0 15.0 0.00 0.00 0.00
20240619225939 57 288 5.0 15.0 0.00 0.00 0.00
20240619225439 57 330 4.0 15.0 0.00 0.00 0.00
20240619224939 57 308 6.0 13.0 0.00 0.00 0.00
20240619224440 57 275 4.0 11.0 0.00 0.00 0.00
20240619223939 57 333 3.0 11.0 0.00 0.00 0.00
20240619223439 58 284 6.0 11.0 0.00 0.00 0.00
20240619222439 58 316 3.0 11.0 0.00 0.00 0.00
20240619221939 58 289 1.0 10.0 0.00 0.00 0.00
20240619220939 58 331 4.0 10.0 0.00 0.00 0.00
20240619220440 57 326 3.0 9.0 0.00 0.00 0.00
20240619215939 58 338 4.0 12.0 0.00 0.00 0.00